Weather History for Mount Carmel, IL

Change the Weather History Date:

Saturday, January 12, 2013

  Actual Average (KLWV) Record (KLWV)
Temperature  
Mean Temperature 54 °F 31 °F  
Max Temperature 64 °F 39 °F 66 °F (2005)
Min Temperature 44 °F 23 °F -8 °F (1997)
Degree Days  
Heating Degree Days 11 34  
Month to date heating degree days 408  
Since 1 July heating degree days 2207  
Cooling Degree Days 0 0  
Month to date cooling degree days 0  
Year to date cooling degree days 0  
Growing Degree Days 4 (Base 50)    
Moisture  
Dew Point 56 °F    
Average Humidity 91    
Maximum Humidity 100    
Minimum Humidity 77    
Precipitation  
Precipitation 0.02 in 0.09 in 1.60 in (2013)
Month to date precipitation 1.10  
Year to date precipitation 1.10  
Sea Level Pressure  
Sea Level Pressure 29.80 in    
Wind  
Wind Speed 6 mph (NE)    
Max Wind Speed 25 mph    
Max Gust Speed 37 mph    
Visibility 7 miles    
Events Rain , Thunderstorm    
T = Trace of Precipitation, MM = Missing Value Source: NWS Daily Summary

Daily Weather History Graph

Daily Weather History Graph

Search for Another Location

Airport:

Trip Planner

Search our weather history database for the weather conditions in past years. The results will help you decide how hot, cold, wet, or windy it might be!

Date:

Astronomy

Jan. 12, 2013 Rise Set
Actual Time 7:08 AM CST 4:50 PM CST
Civil Twilight 6:38 AM CST 5:20 PM CST
Nautical Twilight 6:06 AM CST 5:52 PM CST
Astronomical Twilight 5:34 AM CST 6:24 PM CST
Moon 7:27 AM CST (1/12) 6:18 PM CST (1/12)
Length of Visible Light 10h 41m
Length of Day
9h 42m
New Moon, 1% of the Moon is Illuminated
Jan 12
New Moon
Jan 18
First Quarter
Jan 26
Full
Feb 3
Last Quarter
Feb 10
New

Hourly Weather History & Observations

Time (CST) Temp. Windchill Dew Point Humidity Pressure Visibility Wind Dir Wind Speed Gust Speed Precip Events Conditions
11:55 AM 62.6 °F - 57.2 °F 82% 29.96 in 10.0 mi Calm Calm - N/A   Mostly Cloudy
12:15 PM 64.4 °F - 59.0 °F 83% 29.94 in 10.0 mi SSW 3.5 mph - N/A   Scattered Clouds
12:35 PM 62.6 °F - 57.2 °F 82% 29.93 in 10.0 mi South 3.5 mph - N/A   Scattered Clouds
12:55 PM 64.4 °F - 57.2 °F 77% 29.91 in 10.0 mi SE 3.5 mph - N/A   Mostly Cloudy
1:15 PM 64.4 °F - 57.2 °F 77% 29.91 in 10.0 mi SE 3.5 mph - N/A   Mostly Cloudy
1:35 PM 64.4 °F - 57.2 °F 77% 29.91 in 10.0 mi Calm Calm - N/A   Overcast
1:55 PM 62.6 °F - 57.2 °F 82% 29.89 in 10.0 mi NE 3.5 mph - N/A   Overcast
2:15 PM 62.6 °F - 57.2 °F 82% 29.89 in 10.0 mi East 3.5 mph - N/A   Overcast
2:35 PM 62.6 °F - 57.2 °F 82% 29.88 in 10.0 mi ENE 4.6 mph - N/A Rain Rain
2:55 PM 62.6 °F - 59.0 °F 88% 29.87 in 5.0 mi East 4.6 mph - N/A Rain Heavy Rain
3:15 PM 60.8 °F - 57.2 °F 88% 29.87 in 4.0 mi East 8.1 mph - N/A Rain Rain
3:35 PM 60.8 °F - 59.0 °F 94% 29.86 in 5.0 mi North 4.6 mph - N/A Rain Rain
3:55 PM 60.8 °F - 59.0 °F 94% 29.86 in 3.0 mi North 4.6 mph - N/A Rain Heavy Rain
4:15 PM 59.0 °F - 57.2 °F 94% 29.85 in 5.0 mi North 4.6 mph - N/A Rain Rain
4:35 PM 59.0 °F - 59.0 °F 100% 29.85 in 4.0 mi NNE 4.6 mph - N/A Rain , Thunderstorm Heavy Thunderstorms and Rain
4:55 PM 59.0 °F - 59.0 °F 100% 29.82 in 5.0 mi NNE 10.4 mph - 0.01 in Rain , Thunderstorm Heavy Thunderstorms and Rain
5:15 PM 59.0 °F - 57.2 °F 94% 29.80 in 5.0 mi North 10.4 mph - N/A Rain Light Rain
5:35 PM 59.0 °F - 57.2 °F 94% 29.81 in 4.0 mi NE 10.4 mph - N/A Rain Rain
5:55 PM 59.0 °F - 57.2 °F 94% 29.79 in 5.0 mi NE 13.8 mph - N/A Rain Light Rain
6:15 PM 59.0 °F - 57.2 °F 94% 29.79 in 5.0 mi NNE 6.9 mph - N/A Rain Light Rain
6:35 PM 59.0 °F - 57.2 °F 94% 29.76 in 2.5 mi ENE 16.1 mph - N/A Rain Rain
7:15 PM 59.0 °F - 57.2 °F 94% 29.76 in 4.0 mi NE 9.2 mph - N/A Rain , Thunderstorm Light Thunderstorms and Rain
7:35 PM 59.0 °F - 57.2 °F 94% 29.75 in 3.0 mi ENE 5.8 mph - N/A Rain Light Rain
7:55 PM 59.0 °F - 57.2 °F 94% 29.74 in 5.0 mi East 9.2 mph - N/A Thunderstorm Overcast
8:15 PM 59.0 °F - 59.0 °F 100% 29.75 in 5.0 mi WNW 15.0 mph 21.9 mph N/A Rain Rain
8:35 PM 60.8 °F - 59.0 °F 94% 29.74 in 7.0 mi NNW 6.9 mph 12.7 mph N/A Rain Light Rain
8:55 PM 59.0 °F - 57.2 °F 94% 29.71 in 7.0 mi NNE 3.5 mph - N/A Rain Rain
9:15 PM 59.0 °F - 59.0 °F 100% 29.70 in 10.0 mi ENE 4.6 mph - N/A Rain Light Rain
9:35 PM 60.8 °F - 60.8 °F 100% 29.67 in 7.0 mi South 9.2 mph - N/A Rain Light Rain
9:55 PM 64.4 °F - 60.8 °F 88% 29.64 in 10.0 mi SSE 16.1 mph 24.2 mph N/A   Light Drizzle
10:15 PM 64.4 °F - 62.6 °F 94% 29.62 in 10.0 mi SSE 15.0 mph 24.2 mph N/A Rain Light Rain
10:35 PM 48.2 °F - 46.4 °F 93% 29.69 in 3.0 mi NNW 25.3 mph 36.8 mph N/A Rain Heavy Rain
10:55 PM 48.2 °F - 46.4 °F 93% 29.71 in 10.0 mi NW 23.0 mph 28.8 mph N/A Rain Light Rain
11:15 PM 46.4 °F 38.7 °F 44.6 °F 93% 29.73 in 10.0 mi NNW 20.7 mph 32.2 mph 0.01 in Rain Light Rain
11:35 PM 44.6 °F 40.2 °F 42.8 °F 93% 29.77 in 5.0 mi North 8.1 mph 13.8 mph 0.01 in Rain Heavy Rain
11:55 PM 44.6 °F 38.8 °F 42.8 °F 93% 29.77 in 10.0 mi NNW 11.5 mph - 0.01 in Rain Heavy Rain